SCP
2 2 1 1 1 1 1 1 1 1 1 1 1 1 1 1 0 0 0 0 0 -0 -0 -0 -0 0 0 0 0 1 1 1 1 1 1 1 1 1 1 0 0 0 0
2 2 1 1 1 1 1 0 0 1 1 1 1 1 1 1 1 0 0 0 0 0 0 0 0 0 0 0 1 1 1 1 1 1 1 1 1 1 1 1 0 0 0
1 1 1 1 1 1 0 0 0 1 1 1 1 0 0 0 1 1 0 0 0 0 0 0 0 0 1 1 1 1 1 1 1 1 1 1 1 1 1 1 1 0 0
1 1 1 1 1 1 1 1 0 1 1 1 0 0 0 0 0 1 0 0 0 0 0 0 0 1 1 1 1 1 1 1 1 1 1 1 1 1 1 1 1 0 0
1 1 1 1 1 1 1 1 1 1 1 1 0 0 0 0 0 0 0 0 0 0 0 0 1 1 1 1 1 1 2 1 1 1 1 1 1 1 0 0 0 0 0
1 1 1 1 1 1 1 1 1 1 1 1 1 0 0 0 0 0 0 0 0 0 0 1 1 1 1 1 1 1 2 2 1 1 1 1 1 1 0 0 0 0 0
1 1 1 1 1 1 1 1 1 1 1 1 1 0 0 0 0 0 0 0 0 0 0 0 0 1 1 1 1 1 1 1 1 1 1 1 1 1 0 0 0 0 0
0 0 0 0 0 1 1 1 1 1 1 1 0 0 0 0 0 0 0 0 0 0 0 0 0 0 1 1 1 1 1 1 1 1 1 1 1 0 0 0 0 0 0
0 0 0 0 0 0 1 1 1 1 1 1 0 0 0 0 0 0 0 0 0 0 0 0 0 0 1 1 1 1 1 1 1 1 1 1 0 0 0 0 0 0 0
0 0 0 0 0 0 0 1 1 1 1 1 1 0 0 0 0 0 0 0 0 0 0 0 0 0 1 1 1 1 1 1 1 1 1 1 0 0 0 0 0 0 0
0 0 0 0 0 0 0 1 1 1 1 1 1 0 0 0 0 0 0 0 0 0 0 0 0 1 1 1 1 1 0 0 0 1 1 1 0 0 0 0 0 0 0
0 0 0 0 0 0 0 0 1 1 1 1 1 1 0 0 0 0 0 0 0 0 0 0 0 1 1 1 0 0 0 0 0 0 0 0 0 0 0 0 0 0 0
0 0 0 0 0 0 0 0 0 0 0 1 1 0 0 0 0 0 0 0 0 0 0 0 0 0 0 0 0 0 0 0 0 0 0 0 0 0 0 0 0 0 0
0 0 0 0 0 0 0 0 0 0 0 0 0 0 0 0 0 0 0 0 0 0 0 0 0 0 0 0 0 0 0 0 0 0 0 0 0 0 0 0 0 0 0
0 0 0 -0 -0 0 0 0 0 0 0 0 0 0 0 0 0 0 0 0 0 0 0 0 0 0 0 0 0 0 0 0 0 0 0 0 0 0 0 0 0 0 0
0 0 0 -0 -0 0 0 0 0 0 0 0 0 0 0 0 0 0 0 0 0 0 0 0 0 0 0 0 0 0 0 0 0 0 0 0 0 0 0 0 0 0 0
0 0 -0 -0 -0 0 0 0 0 0 0 0 0 0 0 0 0 0 0 0 0 0 0 0 0 0 0 0 0 0 0 0 0 0 0 0 0 0 0 0 0 0 0
0 0 0 -0 0 0 0 0 0 0 0 0 0 0 0 0 0 0 0 0 0 0 0 0 0 0 0 0 0 0 0 0 0 0 0 0 0 0 0 0 0 0 0
0 0 0 0 0 0 0 0 0 0 0 0 0 0 0 0 0 0 0 0 0 0 0 0 0 0 0 0 0 0 0 0 0 0 0 0 0 0 0 0 0 0 0
0 0 0 0 0 0 0 0 0 0 0 0 0 0 0 0 0 0 0 0 0 0 0 0 0 0 0 0 0 0 0 0 0 0 0 0 0 0 0 0 0 0 0
0 0 0 0 0 0 0 0 0 0 0 0 0 0 0 0 0 0 0 0 0 0 0 0 0 0 0 0 0 0 0 0 0 0 0 0 0 0 0 0 0 0 0
0 0 0 0 0 0 0 0 0 0 0 0 0 0 0 0 0 0 0 0 0 0 0 0 0 0 0 0 0 0 0 0 0 0 0 0 0 0 0 0 0 0 0
0 0 0 0 0 0 0 0 -0 0 0 0 0 0 0 0 0 0 0 0 0 0 0 0 0 0 0 0 0 0 0 0 0 0 0 0 0 0 0 0 0 0 0
0 0 0 0 0 0 -0 -0 -0 0 0 0 0 0 0 0 0 0 0 0 0 0 0 0 0 0 0 0 0 0 0 0 0 0 0 0 0 0 0 0 0 0 0
0 0 0 0 0 0 -0 -0 -0 0 0 0 0 0 0 0 0 0 0 0 0 0 0 0 0 0 0 0 0 0 0 0 0 0 0 0 0 0 0 0 0 0 0
0 0 0 0 0 0 0 0 0 0 0 0 0 0 0 0 0 0 0 0 0 0 0 0 0 0 0 0 0 0 0 0 0 0 0 0 0 0 0 0 0 0 0
Wind_Speed
6 6 6 5 4 3 4 6 7 7 7 8 9 10 10 10 10 8 7 15 17 15 15 15 15 15 15 16 16 16 17 18 19 19 20 21 21 20 20 19 19 18 18
7 7 8 6 5 4 6 8 9 9 8 7 8 9 11 10 10 10 8 10 15 15 15 15 15 15 16 17 17 16 17 18 19 20 20 20 20 20 21 21 21 20 19
9 9 9 7 5 1 6 10 11 9 7 5 7 8 9 11 10 10 9 8 9 12 14 14 15 15 17 18 19 19 18 17 18 19 20 20 20 20 20 20 20 20 19
10 9 7 7 6 8 10 9 8 7 4 3 7 9 8 8 10 9 8 8 7 7 9 13 14 14 16 18 18 19 20 19 18 18 20 21 21 20 19 18 19 18 18
9 7 7 7 7 6 8 9 10 8 6 7 10 10 8 7 8 8 9 9 9 9 7 10 13 14 16 19 19 19 19 19 21 20 20 21 21 20 19 19 19 19 19
5 5 5 6 6 5 6 7 9 9 9 10 9 9 7 7 7 7 9 9 8 10 10 9 8 9 15 16 18 19 21 19 20 21 21 21 22 21 20 19 18 19 19
4 4 4 5 5 5 6 6 6 7 7 6 4 6 6 8 9 8 8 8 8 9 9 9 8 8 8 13 15 19 21 20 20 20 21 20 20 21 20 19 18 19 20
5 5 5 5 6 6 7 7 7 5 5 6 6 4 5 7 6 7 6 7 8 7 9 10 9 10 9 8 10 15 17 20 20 20 19 19 18 20 19 19 18 19 19
5 5 6 7 7 7 7 8 8 9 7 6 8 6 4 6 2 3 4 5 6 6 7 7 8 9 10 8 8 9 11 14 14 14 15 16 16 17 18 18 18 18 18
7 7 8 8 8 7 8 9 10 9 9 7 6 8 8 4 3 4 3 4 4 5 5 4 5 5 5 4 4 3 6 6 5 5 7 11 14 14 14 16 19 19 17
6 7 8 8 9 8 8 10 10 9 8 8 6 4 5 5 5 5 6 3 3 3 3 3 3 1 1 2 2 1 1 5 5 5 6 4 3 5 8 12 16 17 17
5 7 7 7 9 8 8 9 9 9 8 8 7 6 6 5 4 5 6 6 4 2 0 1 1 4 4 6 4 4 6 8 6 7 7 7 5 4 4 3 5 12 16
6 8 7 8 8 8 8 8 8 8 8 9 8 6 6 7 4 5 6 5 5 2 1 2 3 3 3 4 4 6 9 10 9 9 7 6 5 6 6 7 5 4 5
5 7 8 9 10 8 7 7 7 7 6 7 8 6 5 5 4 5 5 5 4 3 2 1 2 3 4 4 5 9 9 12 10 8 6 4 4 6 7 6 6 5 5
5 7 9 10 11 10 8 7 6 8 6 7 7 6 5 5 6 8 8 7 6 4 3 3 2 4 4 4 7 7 6 8 9 8 6 3 4 6 7 8 8 6 5
4 6 8 10 11 10 9 7 6 7 6 5 4 5 6 7 9 9 9 7 5 5 4 2 2 3 3 6 9 7 6 9 10 9 7 8 8 8 9 9 7 6 6
4 6 7 9 10 10 9 7 4 4 3 3 4 2 1 1 2 3 5 5 3 3 6 3 2 2 4 6 6 6 7 6 8 11 11 11 11 10 10 9 9 8 7
5 6 7 7 9 9 8 8 7 7 5 6 7 6 5 6 6 5 4 4 3 4 6 6 2 3 5 5 6 6 6 6 6 10 11 11 11 11 10 9 8 8 7
4 5 5 4 7 7 7 8 8 9 8 7 7 6 3 4 4 4 2 4 5 6 5 8 5 4 5 4 5 5 5 5 5 7 8 9 8 8 7 7 6 6 6
4 4 4 3 4 4 6 6 7 7 6 7 4 2 2 3 2 3 4 7 8 8 7 8 7 4 5 4 4 3 4 3 5 4 5 5 6 7 7 6 6 7 7
4 3 1 1 2 3 3 4 4 4 3 6 3 3 4 6 5 4 6 8 9 8 7 7 6 5 3 3 4 2 2 2 3 3 2 4 4 4 5 6 7 8 8
5 4 3 2 1 0 2 3 0 1 2 4 1 5 7 9 12 14 16 14 10 9 7 5 5 5 3 3 3 2 2 2 1 4 3 4 5 4 5 5 8 9 8
6 6 5 5 4 3 4 4 1 2 3 1 4 5 5 4 7 9 12 14 13 11 7 6 6 4 3 2 3 2 2 2 2 3 3 3 4 4 5 6 9 10 11
8 8 8 8 6 6 6 5 5 4 4 5 5 4 5 3 4 7 9 9 9 8 7 5 6 4 3 3 2 3 2 2 2 3 4 3 4 4 4 5 9 10 10
7 7 8 9 8 8 10 11 9 5 4 6 4 3 4 4 4 7 10 10 9 8 10 13 12 11 10 7 3 2 2 2 2 3 5 4 4 3 2 3 5 10 11
8 8 8 9 9 9 12 15 12 7 6 4 4 4 5 6 7 6 11 10 10 5 6 7 8 10 10 11 10 6 3 3 2 3 5 5 4 4 2 2 5 7 8
Wind_Direction
223 230 238 232 233 244 244 253 258 251 244 242 243 245 250 245 243 242 246 252 254 254 247 236 242 244 241 236 228 225 223 221 221 220 219 218 217 217 218 219 218 216 215
222 216 230 225 228 245 276 278 265 254 247 243 245 240 247 250 243 243 244 250 250 248 246 244 241 238 237 237 235 229 224 221 221 220 220 220 220 220 220 219 219 217 217
230 232 233 229 218 192 293 284 274 259 240 237 254 251 245 245 242 240 241 247 250 247 244 245 246 240 234 235 237 235 229 226 222 219 221 220 221 223 223 221 219 218 217
243 241 245 248 231 212 215 230 249 249 232 235 265 257 244 241 242 239 238 242 250 252 246 246 248 246 246 247 241 235 228 229 229 222 221 222 222 223 223 220 218 216 215
250 245 252 259 257 230 208 211 226 216 203 219 237 246 242 237 239 243 242 241 244 251 254 251 249 248 252 254 250 247 239 230 229 225 222 223 224 224 221 219 217 215 217
249 250 254 262 268 255 231 216 228 213 206 213 225 243 243 241 239 238 243 244 243 248 250 255 261 259 253 254 257 252 248 239 234 227 227 226 224 223 221 219 217 216 221
302 288 279 277 276 267 261 240 232 228 222 206 221 250 252 244 238 235 233 234 241 247 253 252 254 259 259 255 254 251 244 241 237 230 230 228 224 225 220 218 213 212 218
311 302 290 288 280 275 267 252 235 232 221 188 201 225 253 255 241 242 235 230 238 247 258 257 255 256 257 259 252 247 241 243 240 239 232 233 231 226 220 216 212 213 215
307 301 299 295 286 273 263 255 241 232 239 217 212 221 225 231 246 254 238 234 242 251 258 259 263 263 256 255 260 251 247 247 243 245 247 245 240 232 220 214 211 212 213
325 322 314 305 292 281 273 262 246 235 233 233 219 227 237 216 207 260 254 239 231 249 263 269 275 273 248 241 248 267 260 251 259 264 269 260 244 230 221 214 219 216 212
312 312 314 301 294 285 278 269 255 241 235 233 221 212 225 224 211 230 254 247 239 244 266 274 254 224 115 68 27 26 104 86 50 30 21 352 284 240 226 224 227 223 219
309 308 307 311 307 298 294 289 272 254 245 239 232 208 209 214 204 204 225 234 240 235 69 336 84 51 54 64 56 73 76 67 51 45 42 40 37 39 43 14 267 231 227
321 319 319 316 310 300 292 290 286 271 255 247 242 230 226 226 204 196 214 228 222 196 136 52 46 55 51 57 41 74 79 71 58 52 50 50 50 60 64 58 25 346 260
299 303 308 303 293 290 289 291 286 275 265 254 241 229 220 211 205 210 207 216 210 175 149 147 30 65 64 46 86 86 73 69 60 54 52 55 69 77 76 74 63 33 23
296 305 311 310 303 297 291 291 283 278 269 257 245 241 242 228 213 221 216 209 199 170 168 181 150 88 87 81 82 81 76 64 57 48 36 53 82 89 88 80 70 58 44
295 307 317 319 319 318 317 306 288 284 276 269 270 271 267 249 231 220 210 192 178 147 132 130 84 86 74 80 81 70 69 55 41 41 51 85 86 87 81 74 65 50 39
297 311 320 323 328 335 348 351 350 321 294 322 327 305 21 342 227 187 153 133 125 111 115 83 40 64 80 96 97 78 66 61 50 50 61 74 82 87 86 78 69 60 48
302 310 316 332 338 345 360 14 34 37 19 28 30 42 50 42 27 52 81 96 111 107 123 124 101 77 81 89 94 87 76 62 51 49 55 68 79 89 92 86 78 67 54
298 309 314 346 339 355 26 36 46 46 47 46 36 40 33 67 23 37 67 100 105 94 97 108 97 71 82 87 93 80 61 52 52 53 50 52 63 75 83 78 64 57 46
283 302 313 341 338 359 46 57 57 49 57 63 30 39 46 75 85 128 143 122 114 107 106 104 98 86 80 71 84 91 92 66 51 42 48 33 39 47 48 47 38 28 15
248 257 256 348 351 5 51 70 74 70 72 72 6 48 80 90 93 115 124 116 113 109 107 103 99 93 79 76 78 77 94 89 67 21 34 30 20 36 29 32 27 16 9
219 220 200 179 117 148 152 144 165 128 116 106 91 63 75 80 74 69 71 74 85 109 109 101 97 96 89 83 84 78 83 98 70 11 10 34 20 29 21 31 36 30 18
201 209 197 181 180 206 201 188 158 57 58 97 125 105 81 61 82 82 72 67 62 70 99 119 116 119 130 138 127 122 106 80 71 0 354 36 24 30 17 19 16 21 19
202 204 195 190 184 210 213 184 105 88 79 65 63 90 115 100 74 98 90 72 61 62 71 90 100 110 111 134 121 103 100 107 92 32 15 25 15 12 357 11 9 16 21
210 202 192 187 186 202 202 169 131 118 96 70 63 71 100 105 75 99 100 92 82 70 70 72 72 71 70 62 69 121 105 112 76 26 23 14 3 338 320 337 0 4 4
212 210 191 189 186 189 182 164 142 136 116 104 84 70 83 101 94 104 116 114 102 78 86 78 61 52 49 50 48 53 77 93 78 39 20 358 357 345 329 346 346 356 357